WHOI SSSG dsLogCsv
DATE_GMT, TIME_GMT, PHINS_HEADING, HDT, PHTRO_ROLL, PHTRO_ROLL_FRAME, PHTRO_PITCH, PHTRO_PITCH_FRAME, PHLIN_SURGE_LIN, PHLIN_SWAY_LIN, PHLIN_HEAVE_LIN, PHSPD_SURGE_SPD, PHSPD_SWAY_SPD, PHSPD_HEAVE_SPD
2015/11/09, 00:00:02.330, 63.7770, 63.772, 1.3000, T, 1.0600, P, -0.0030, 0.6090, 0.6090, 1.1440, 0.3770, 0.8780
2015/11/09, 00:00:12.330, 63.5080, 63.510, 4.0000, T, 1.0400, P, -1.9740, -0.1370, -0.1370, 0.1210, -0.2030, 0.2410
2015/11/09, 00:00:22.330, 61.0990, 61.099, 3.7900, T, 1.4100, M, 1.1080, -0.3150, -0.3150, -0.2990, -0.2090, -0.4340
2015/11/09, 00:00:32.330, 60.1740, 60.172, 6.5800, T, 0.8600, P, 0.4680, 0.0150, 0.0150, 0.9860, -0.8550, 0.2280
2015/11/09, 00:00:42.330, 63.7090, 63.708, 1.7000, T, 0.5700, P, -2.2940, -0.2350, -0.2350, -0.5970, 0.2750, -1.0330
2015/11/09, 00:00:52.330, 63.6420, 63.647, 0.6700, B, 3.7000, M, 2.3370, -1.2580, -1.2580, -0.6280, 0.1870, -0.5850
2015/11/09, 00:01:02.330, 65.7160, 65.719, 1.6700, B, 0.7200, M, 0.4840, -1.1860, -1.1860, 0.8220, -0.0680, 0.1490
2015/11/09, 00:01:12.330, 67.8480, 67.848, 1.4900, T, 1.3400, P, -2.7540, -0.4880, -0.4880, -0.4880, 0.1910, -0.7370
2015/11/09, 00:01:22.330, 68.8750, 68.876, 0.4600, B, 2.3700, M, 0.8640, -0.1720, -0.1720, -0.8130, 0.4410, -0.6530
2015/11/09, 00:01:32.330, 67.4090, 67.411, 0.3000, B, 0.0400, P, -0.0600, 0.8270, 0.8270, 0.5340, 0.1340, 0.9700
2015/11/09, 00:01:42.330, 67.1700, 67.171, 0.2400, T, 0.3800, M, -0.6050, 0.0150, 0.0150, -0.1070, 0.0750, 0.0140
2015/11/09, 00:01:52.330, 68.0890, 68.087, 1.1200, T, 0.9700, M, 0.7320, -0.4350, -0.4350, -0.1510, 0.2220, -0.4570
2015/11/09, 00:02:02.331, 69.2380, 69.239, 0.8200, T, 0.7700, M, -0.1890, -0.2260, -0.2260, -0.0180, 0.1780, -0.3900
2015/11/09, 00:02:12.331, 69.2910, 69.291, 0.1800, B, 1.3700, M, -0.0760, -0.4980, -0.4980, -0.5240, 0.3740, -0.6760
2015/11/09, 00:02:22.331, 68.2510, 68.255, 0.1900, B, 2.7900, M, 1.0940, -0.6710, -0.6710, 0.0790, -0.0050, -0.1220
2015/11/09, 00:02:32.331, 69.2640, 69.266, 1.9300, B, 0.3200, M, -0.5570, 0.0930, 0.0930, 0.3710, 0.0490, 1.1180
2015/11/09, 00:02:42.331, 69.4390, 69.437, 2.3500, T, 0.4500, M, -0.5400, -0.0360, -0.0360, -0.3400, 0.1200, -0.4240
2015/11/09, 00:02:52.331, 68.5680, 68.564, 1.4500, T, 0.1000, M, 0.5920, 0.2770, 0.2770, 0.1780, 0.3250, -0.1120
2015/11/09, 00:03:02.331, 67.8630, 67.862, 1.4200, T, 1.2800, P, -1.1700, -0.0700, -0.0700, 0.4790, 0.1640, 0.3120
2015/11/09, 00:03:12.331, 67.0010, 67.000, 1.5400, T, 0.2700, M, -0.7410, 0.0480, 0.0480, -0.4720, 0.0560, -0.1060
2015/11/09, 00:03:22.331, 66.5380, 66.539, 3.1000, T, 1.3800, M, 0.9680, 0.4140, 0.4140, 0.2950, -0.3840, 0.6920
2015/11/09, 00:03:32.331, 68.1110, 68.111, 1.0400, T, 1.3200, P, -1.2030, 0.3790, 0.3790, 0.3080, 0.4370, 0.2020
2015/11/09, 00:03:42.331, 68.5290, 68.528, 0.3800, B, 1.3200, M, 0.1730, 0.0690, 0.0690, -0.3640, 0.2500, -0.2420
2015/11/09, 00:03:52.331, 65.4910, 65.487, 3.2100, T, 0.1700, M, 1.2380, 0.5940, 0.5940, 0.7940, -0.3040, 0.4890
2015/11/09, 00:04:02.331, 64.7360, 64.735, 4.3400, T, 0.6000, P, -1.0550, 1.0210, 1.0210, 0.5520, -0.5270, 0.3320
2015/11/09, 00:04:12.331, 68.3600, 68.361, 4.4500, T, 2.9900, M, 0.4960, -0.1230, -0.1230, -0.2770, -0.5490, -0.0120
2015/11/09, 00:04:22.331, 69.9530, 69.955, 3.1800, T, 1.8500, M, 1.5840, -1.3440, -1.3440, 0.3620, -0.1980, -0.0640
2015/11/09, 00:04:32.331, 66.7080, 66.712, 0.7600, T, 1.1000, M, -0.0380, -0.4530, -0.4530, 0.4170, -0.0150, -0.0660
2015/11/09, 00:04:42.331, 67.5170, 67.519, 0.3600, B, 0.1300, M, -0.6310, 0.1090, 0.1090, -0.4540, -0.0870, 0.1240
2015/11/09, 00:04:52.332, 68.2410, 68.240, 2.3400, T, 1.8000, M, 0.6280, -0.3300, -0.3300, -0.2640, -0.0600, -0.2570
2015/11/09, 00:05:02.332, 66.7170, 66.714, 1.5900, T, 0.8100, M, 0.3330, 0.5030, 0.5030, 0.6270, 0.1900, 0.6220
2015/11/09, 00:05:12.332, 66.4890, 66.487, 0.3100, B, 0.4600, M, -0.7260, 0.1360, 0.1360, 0.0280, 0.0820, -0.2840
2015/11/09, 00:05:22.332, 64.8320, 64.833, 0.4400, B, 0.7600, M, 0.0260, 0.4110, 0.4110, -0.0610, 0.1600, 0.4060
2015/11/09, 00:05:32.332, 64.9780, 64.977, 1.5700, T, 0.5600, P, -0.7550, 0.7350, 0.7350, -0.1700, 0.0350, 0.5730
2015/11/09, 00:05:42.332, 66.0740, 66.071, 0.2700, T, 0.5800, P, -0.5970, 0.5600, 0.5600, -0.0750, 0.8380, -0.0320
2015/11/09, 00:05:52.332, 66.2670, 66.269, 2.0000, B, 0.0800, M, -0.3540, 0.0560, 0.0560, 0.1790, 0.4660, 0.9700
2015/11/09, 00:06:02.332, 63.2950, 63.291, 2.8200, T, 2.1200, M, 0.6650, -0.4480, -0.4480, 0.0730, 0.1480, -0.4070
2015/11/09, 00:06:12.332, 62.7400, 62.737, 2.4000, T, 2.6500, M, 1.5010, 0.5160, 0.5160, 0.1280, -0.0180, -0.8380
2015/11/09, 00:06:22.332, 65.7750, 65.773, 0.0900, B, 1.1000, P, -0.9610, 0.0600, 0.0600, 0.3980, 0.4580, 0.3370
2015/11/09, 00:06:32.332, 64.5720, 64.574, 0.3500, T, 1.3900, M, -0.8350, -1.7020, -1.7020, -0.3710, 0.3700, -1.0050
2015/11/09, 00:06:42.332, 63.3510, 63.353, 3.9500, B, 1.5700, M, 1.0170, -0.5420, -0.5420, -0.2400, 0.6980, -0.4690
2015/11/09, 00:06:52.332, 63.9290, 63.929, 1.5200, B, 0.2700, P, -0.2150, 0.5510, 0.5510, 0.4700, -0.3590, 1.3840
2015/11/09, 00:07:02.332, 65.0130, 65.015, 3.1200, T, 0.3000, M, -0.0360, -0.3050, -0.3050, 0.0550, -0.6130, 0.0750
2015/11/09, 00:07:12.332, 65.2930, 65.289, 2.9700, T, 0.0200, M, 0.6280, 0.0900, 0.0900, 0.4130, -0.1560, 0.0440
2015/11/09, 00:07:22.332, 68.3340, 68.329, 1.9600, T, 0.8600, P, -0.7300, 0.5430, 0.5430, 0.5870, 0.5210, 0.3420
2015/11/09, 00:07:32.332, 70.6090, 70.611, 0.0700, B, 0.9400, M, -0.6680, 0.0470, 0.0470, -0.0000, 0.2250, 0.8200
2015/11/09, 00:07:42.333, 68.9600, 68.962, 0.6600, B, 0.7200, M, -0.6590, -0.3260, -0.3260, -0.7190, 0.4550, -1.1050
2015/11/09, 00:07:52.333, 70.5750, 70.577, 0.5700, B, 3.5500, M, 1.0660, -0.4470, -0.4470, -0.8050, 0.4120, -0.9320
2015/11/09, 00:08:02.333, 70.8770, 70.880, 1.1200, B, 1.2200, M, 1.0140, -1.0190, -1.0190, 0.2850, 0.4110, -0.5340
2015/11/09, 00:08:12.333, 68.7200, 68.725, 0.9700, B, 0.1900, M, -1.2220, -1.1940, -1.1940, -0.1820, -0.0300, -0.6870
2015/11/09, 00:08:22.333, 67.4710, 67.468, 0.8000, T, 1.1700, M, 0.4310, -0.2250, -0.2250, -0.5240, 0.5290, -1.1300
2015/11/09, 00:08:32.333, 66.6440, 66.641, 1.1100, B, 0.0300, M, 0.2170, 0.6700, 0.6700, 0.5070, 0.4750, 0.0370
2015/11/09, 00:08:42.333, 63.7940, 63.792, 0.5100, T, 0.7600, P, -1.5020, 0.4680, 0.4680, -0.0930, 0.0210, 0.1700
2015/11/09, 00:08:52.333, 63.1770, 63.178, 0.8300, T, 3.0200, M, 1.2190, -0.4560, -0.4560, -0.4790, 0.1120, -0.8690
2015/11/09, 00:09:02.333, 65.2450, 65.242, 0.2200, B, 0.2300, P, 0.0790, -0.2330, -0.2330, 0.5220, 0.3390, 0.6120
2015/11/09, 00:09:12.333, 64.0070, 64.012, 0.5400, T, 0.6700, M, -1.0450, -0.4010, -0.4010, -0.2690, 0.1700, 0.0000
2015/11/09, 00:09:22.333, 61.4140, 61.411, 4.2000, T, 1.1200, M, 1.2120, 0.0580, 0.0580, -0.2840, -0.0520, -0.6190
2015/11/09, 00:09:32.333, 62.5100, 62.505, 4.9500, T, 0.2700, M, 0.1990, 0.7930, 0.7930, 0.6620, 0.0530, 0.2000
2015/11/09, 00:09:42.333, 63.6220, 63.625, 1.2600, T, 0.9700, M, -1.1000, 0.1360, 0.1360, -0.3150, -0.2890, 0.8320
2015/11/09, 00:09:52.333, 60.5900, 60.595, 0.8300, T, 2.2300, M, 0.6300, -0.5420, -0.5420, -0.4910, -0.1290, -0.4690
2015/11/09, 00:10:02.333, 60.8980, 60.895, 4.1100, T, 0.2000, P, 0.7890, 1.0230, 1.0230, 0.6040, -0.4810, 0.6990
2015/11/09, 00:10:12.333, 66.2990, 66.301, 0.9900, T, 0.7000, M, -0.7400, 0.2890, 0.2890, 0.2120, -0.0390, 0.2720
2015/11/09, 00:10:22.333, 66.4890, 66.495, 0.9700, B, 1.3500, M, -0.1760, -0.6180, -0.6180, -0.5350, -0.1840, 0.0290
2015/11/09, 00:10:32.333, 67.9760, 67.977, 1.3700, T, 1.9000, M, 1.0320, -0.6210, -0.6210, -0.1300, -0.2790, -0.0160
2015/11/09, 00:10:42.334, 70.9370, 70.939, 3.3900, T, 1.9300, M, 0.1890, -0.3900, -0.3900, -0.0020, -0.6340, 0.3950
2015/11/09, 00:10:52.334, 72.1420, 72.140, 3.2600, T, 2.2000, M, 0.5800, 0.5710, 0.5710, -0.4720, -0.0380, -0.0990
2015/11/09, 00:11:02.334, 70.0800, 70.078, 3.5600, T, 1.4600, M, 1.4850, 1.7900, 1.7900, 0.4890, -0.1400, 0.1990
2015/11/09, 00:11:12.334, 68.9650, 68.962, 2.7400, T, 0.9400, P, -0.8030, 1.1070, 1.1070, 0.9010, -0.1480, 0.6580
2015/11/09, 00:11:22.334, 68.3290, 68.326, 2.2000, T, 0.2700, P, -1.0190, 0.4780, 0.4780, -0.0190, 0.1870, 0.0690
2015/11/09, 00:11:32.334, 68.8640, 68.864, 0.7300, B, 1.2100, M, 0.5120, -0.4390, -0.4390, -0.4080, 0.5930, -0.8480
2015/11/09, 00:11:42.334, 66.6800, 66.678, 0.3100, T, 0.6000, M, -0.0510, -0.1330, -0.1330, 0.1440, 0.0920, 0.6330
2015/11/09, 00:11:52.334, 67.6400, 67.639, 3.3800, T, 1.0600, M, -0.0480, -0.6640, -0.6640, -0.0250, -0.2910, -0.3400
2015/11/09, 00:12:02.334, 67.9540, 67.952, 1.5800, T, 1.4900, M, 0.5130, 0.0510, 0.0510, 0.0590, 0.1090, -0.1130
2015/11/09, 00:12:12.334, 64.9720, 64.972, 1.1100, T, 0.1100, M, -0.3110, 0.4320, 0.4320, 0.1890, 0.0550, 0.0610
2015/11/09, 00:12:22.334, 63.9870, 63.985, 1.4300, T, 0.7000, M, -0.1190, 0.1100, 0.1100, -0.1190, -0.0970, -0.2090
2015/11/09, 00:12:32.334, 64.0290, 64.030, 1.6400, T, 2.1200, M, 0.9390, -0.5420, -0.5420, -0.0290, -0.2040, 0.1110
2015/11/09, 00:12:42.334, 62.4410, 62.441, 1.3600, T, 0.0100, M, -0.0780, -0.7940, -0.7940, 0.2770, 0.0410, -0.0920
2015/11/09, 00:12:52.334, 62.3780, 62.375, 0.4000, B, 1.5700, M, -0.0110, 0.3330, 0.3330, -0.0280, -0.2560, 0.4960
2015/11/09, 00:13:02.334, 64.6210, 64.614, 1.8000, T, 1.4600, P, -0.4930, 0.3610, 0.3610, 0.1480, 0.2860, -0.3280
2015/11/09, 00:13:12.334, 62.6960, 62.698, 1.6700, T, 0.9700, M, -0.4710, -0.0150, -0.0150, -0.0430, 0.1900, -0.3270
2015/11/09, 00:13:22.334, 61.4600, 61.461, 1.5200, T, 1.8700, M, 0.2600, -0.8220, -0.8220, -0.2420, -0.3260, -0.2200
2015/11/09, 00:13:32.335, 63.2460, 63.244, 1.0700, T, 0.1000, P, -0.1550, -0.0720, -0.0720, 0.0710, -0.0170, 0.6780
2015/11/09, 00:13:42.335, 64.4000, 64.401, 1.6300, T, 0.8300, M, 0.1790, -0.0080, -0.0080, -0.0210, -0.3150, 0.0430
2015/11/09, 00:13:52.335, 64.1680, 64.168, 2.3100, T, 0.3800, M, 0.4720, -0.1480, -0.1480, 0.3570, -0.2870, 0.1020
2015/11/09, 00:14:02.335, 63.9450, 63.943, 3.8500, T, 0.9500, P, -0.9740, -0.4550, -0.4550, 0.3080, -0.5050, 0.0380
2015/11/09, 00:14:12.335, 64.8970, 64.897, 1.5600, T, 2.2100, M, 0.0500, -0.6270, -0.6270, -0.6010, -0.3730, -0.4560
2015/11/09, 00:14:22.335, 66.7780, 66.775, 2.1800, T, 0.6400, M, 0.1380, 0.2540, 0.2540, -0.0870, -0.0290, -0.0100
2015/11/09, 00:14:32.335, 66.7630, 66.762, 2.1600, T, 0.6300, M, -0.3210, 0.3490, 0.3490, 0.0000, 0.3340, -0.0400
2015/11/09, 00:14:42.335, 66.1470, 66.150, 0.3700, T, 2.2000, M, 1.2300, -0.4830, -0.4830, -0.0480, 0.1380, -0.3260
2015/11/09, 00:14:52.335, 67.3410, 67.341, 0.7200, T, 0.0700, P, 0.4440, 0.0540, 0.0540, 0.7080, -0.2340, 1.0340
2015/11/09, 00:15:02.335, 67.6880, 67.686, 4.3700, T, 1.2800, P, -1.8210, 0.5570, 0.5570, -0.0360, -0.2720, 0.6290
2015/11/09, 00:15:12.335, 67.2090, 67.208, 5.8200, T, 1.7800, M, 0.5820, 0.0770, 0.0770, -0.6170, -0.4600, -0.6360
2015/11/09, 00:15:22.335, 67.0930, 67.088, 4.6100, T, 0.0300, M, 0.5190, 0.8550, 0.8550, 0.7480, 0.1250, 0.4250
2015/11/09, 00:15:32.335, 66.2330, 66.230, 3.1600, T, 1.9100, P, -1.8510, 1.0200, 1.0200, 0.4790, 0.1930, 0.7580
2015/11/09, 00:15:42.335, 65.5650, 65.565, 2.8100, T, 0.2100, M, -0.1570, 0.7020, 0.7020, -0.1770, -0.1060, 0.4550
2015/11/09, 00:15:52.335, 66.2700, 66.272, 3.8200, T, 1.0000, M, 0.0120, -1.4040, -1.4040, 0.0860, -0.2610, -1.0180
2015/11/09, 00:16:02.335, 65.6480, 65.653, 2.0000, B, 2.2000, M, -0.4020, -0.8020, -0.8020, -0.5990, 0.3420, -0.4060
2015/11/09, 00:16:12.335, 67.0170, 67.023, 2.4600, B, 1.1800, M, 0.4220, -0.7360, -0.7360, -0.4290, -0.0950, -0.2180
2015/11/09, 00:16:22.335, 68.3120, 68.317, 0.9000, T, 1.1400, M, -0.0430, -1.3870, -1.3870, -0.2560, -0.4850, -0.4190
2015/11/09, 00:16:32.336, 67.0570, 67.057, 4.1500, T, 3.1900, M, 1.3220, -0.2260, -0.2260, -0.3310, -0.1330, -1.0110
2015/11/09, 00:16:42.336, 64.3600, 64.354, 5.5300, T, 0.8700, M, 1.9020, 1.7060, 1.7060, 0.8510, -0.2390, 0.4160
2015/11/09, 00:16:52.336, 63.5220, 63.522, 2.7500, T, 0.1100, P, -0.8510, 1.2840, 1.2840, 0.6430, -0.3710, 0.9380
2015/11/09, 00:17:02.336, 65.6460, 65.649, 1.6300, T, 2.1200, M, -0.1270, -1.7230, -1.7230, -0.6010, -0.5270, -1.1230
2015/11/09, 00:17:12.336, 65.8560, 65.854, 3.2000, T, 2.8600, M, 2.0130, -1.5620, -1.5620, 0.2230, -0.3310, -0.5640
2015/11/09, 00:17:22.336, 65.5160, 65.511, 8.1800, T, 1.9000, P, -0.4270, 0.3800, 0.3800, 1.3470, -0.1770, 0.3870
2015/11/09, 00:17:32.336, 66.6220, 66.619, 4.2500, T, 0.8300, P, -1.8530, 1.0470, 1.0470, -0.1470, 0.1490, 0.3650
2015/11/09, 00:17:42.336, 65.6540, 65.656, 3.9000, T, 2.9000, M, 1.1960, -0.7500, -0.7500, -0.3900, -0.2820, -1.0500
2015/11/09, 00:17:52.336, 64.1520, 64.151, 3.8800, T, 0.5500, M, 0.8110, -0.2000, -0.2000, 0.7280, -0.5180, 0.1700
2015/11/09, 00:18:02.336, 66.2790, 66.277, 2.9200, T, 1.3400, P, -1.8870, 0.1560, 0.1560, 0.2330, -0.3130, 0.7110
2015/11/09, 00:18:12.336, 67.6470, 67.647, 1.2100, T, 2.2500, M, 0.2740, 0.2530, 0.2530, -0.7100, 0.1590, -0.2380
2015/11/09, 00:18:22.336, 66.8330, 66.833, 0.1500, B, 2.6400, M, 1.7740, -0.3280, -0.3280, 0.1460, 0.2970, -0.1830
2015/11/09, 00:18:32.336, 67.0650, 67.066, 2.7200, B, 1.2200, M, 0.2920, -0.3670, -0.3670, 0.2560, 0.2670, 0.0960
2015/11/09, 00:18:42.336, 67.5220, 67.525, 0.4000, T, 1.9200, M, 0.3740, -0.6400, -0.6400, 0.0230, -0.1760, -0.5210
2015/11/09, 00:18:52.336, 65.6770, 65.677, 3.1200, T, 0.1800, P, -0.1730, 0.1920, 0.1920, 0.1900, -0.1130, -0.2430
2015/11/09, 00:19:02.336, 65.3610, 65.361, 0.0100, T, 1.4800, M, -0.0790, 0.4820, 0.4820, -0.3870, 0.3400, -0.3070
2015/11/09, 00:19:12.337, 63.5690, 63.567, 1.7800, T, 1.5500, M, 1.2030, 0.5410, 0.5410, 0.3810, -0.2960, 0.8780
2015/11/09, 00:19:22.337, 66.2500, 66.251, 3.7000, T, 0.6900, M, 0.2990, -0.6320, -0.6320, 0.5200, -0.6190, 0.5160
2015/11/09, 00:19:32.337, 68.9230, 68.925, 2.5100, T, 0.6900, P, -1.5770, -1.2550, -1.2550, -0.1620, 0.0910, -0.7470
2015/11/09, 00:19:42.337, 67.5690, 67.572, 1.5300, B, 2.7500, M, 0.2870, -0.5300, -0.5300, -0.9820, 0.1300, -0.2400
2015/11/09, 00:19:52.337, 65.4130, 65.416, 1.2500, B, 2.4300, M, 1.9090, -0.0440, -0.0440, -0.0790, 0.2530, -0.1550
2015/11/09, 00:20:02.337, 65.4860, 65.485, 0.5100, B, 0.1000, M, -0.5300, 0.3720, 0.3720, 0.6500, -0.0710, 0.5000
2015/11/09, 00:20:12.337, 64.4420, 64.440, 0.0700, B, 1.3300, P, -1.9690, 0.3760, 0.3760, -0.3290, -0.1530, 0.8430
2015/11/09, 00:20:22.337, 62.8180, 62.816, 2.3100, T, 1.0700, M, 0.0640, -0.4110, -0.4110, -0.6930, -0.5580, -0.2970
2015/11/09, 00:20:32.337, 62.0300, 62.030, 5.3100, T, 2.2500, M, 0.9420, -0.7300, -0.7300, 0.0680, -0.5510, -0.0820
2015/11/09, 00:20:42.337, 63.0680, 63.072, 5.3400, T, 1.9900, M, 0.3730, -0.0140, -0.0140, 0.2550, -1.0090, 1.0310
2015/11/09, 00:20:52.337, 63.9480, 63.951, 4.8800, T, 1.7300, M, 0.6590, -1.0870, -1.0870, 0.0540, -0.3560, -0.2170
2015/11/09, 00:21:02.337, 65.6010, 65.604, 2.2800, T, 0.1900, M, 0.1300, -0.7500, -0.7500, -0.0310, -0.1180, -0.5340
2015/11/09, 00:21:12.337, 66.3650, 66.367, 0.0800, T, 0.3300, M, -0.2440, -0.7920, -0.7920, -0.0130, 0.5290, -0.4320
2015/11/09, 00:21:22.337, 65.6810, 65.678, 0.1800, T, 0.3400, M, 0.0530, 0.1710, 0.1710, 0.1600, 0.0460, 0.5030
2015/11/09, 00:21:32.337, 66.6530, 66.652, 3.4100, T, 1.0100, M, 0.1440, 0.1770, 0.1770, 0.2090, 0.0110, -0.1040
2015/11/09, 00:21:42.337, 67.4590, 67.458, 2.5900, T, 0.3500, P, -0.0370, 0.6630, 0.6630, 0.4030, 0.2790, -0.1510
2015/11/09, 00:21:52.337, 65.7170, 65.719, 0.5900, B, 0.3600, P, -0.4760, 1.1050, 1.1050, 0.1930, 0.0930, 0.4750
2015/11/09, 00:22:02.337, 65.1660, 65.167, 0.1500, T, 1.2100, M, -0.0150, 0.1350, 0.1350, -0.2450, -0.0080, -0.4390
2015/11/09, 00:22:12.338, 65.8700, 65.866, 2.0100, T, 0.4800, P, -0.0280, 0.6300, 0.6300, 0.1810, -0.1390, 0.4580
2015/11/09, 00:22:22.338, 66.8600, 66.860, 0.6800, T, 1.8800, M, -0.4920, 0.0710, 0.0710, -0.3770, 0.2210, -0.2310
2015/11/09, 00:22:32.338, 64.8560, 64.856, 0.0500, T, 2.8200, M, 0.8380, 0.1960, 0.1960, -0.2390, 0.1380, 0.0130
2015/11/09, 00:22:42.338, 65.7660, 65.766, 1.9600, B, 0.1300, M, 0.1350, -0.1310, -0.1310, 0.2870, 0.1280, 0.3460
2015/11/09, 00:22:52.338, 68.0030, 68.003, 0.6700, T, 0.8500, P, -1.3190, -0.0550, -0.0550, -0.1230, 0.0770, 0.4900
2015/11/09, 00:23:02.338, 69.3860, 69.386, 3.3100, T, 1.8400, M, 0.2700, -0.1990, -0.1990, -0.4140, 0.0340, -0.0000
2015/11/09, 00:23:12.338, 66.6800, 66.682, 1.6800, T, 1.1800, M, 0.1110, 0.2700, 0.2700, 0.3820, 0.0770, 0.4980
2015/11/09, 00:23:22.338, 66.6340, 66.634, 1.4400, T, 0.1700, M, -0.9610, 0.4460, 0.4460, -0.2110, -0.3160, 0.6930
2015/11/09, 00:23:32.338, 67.0230, 67.022, 3.4700, T, 1.2200, M, 0.6060, 0.0410, 0.0410, -0.3270, 0.0440, -0.7100
2015/11/09, 00:23:42.338, 65.0150, 65.013, 5.1100, T, 0.4700, M, 0.2520, 0.3420, 0.3420, 0.5200, -0.1930, 0.2920
2015/11/09, 00:23:52.338, 64.9510, 64.948, 5.3100, T, 1.2900, P, -0.9640, 0.7240, 0.7240, 0.2620, -0.3090, 0.5430
2015/11/09, 00:24:02.338, 64.7040, 64.706, 4.7600, T, 1.2200, M, 0.1280, 0.4210, 0.4210, 0.0780, -0.5050, 0.6730
2015/11/09, 00:24:12.338, 65.3220, 65.325, 0.9500, B, 2.2500, M, 0.4400, -0.9030, -0.9030, -0.4840, 0.1350, -0.3750
2015/11/09, 00:24:22.338, 64.5330, 64.530, 2.1100, T, 1.2400, M, 0.8500, -0.5400, -0.5400, 0.0190, 0.3560, -1.1320
2015/11/09, 00:24:32.338, 65.4740, 65.470, 4.9200, T, 0.2600, P, 0.3570, 0.5420, 0.5420, 0.9510, -0.2440, 1.2080
2015/11/09, 00:24:42.339, 63.7910, 63.791, 3.4300, T, 1.4900, P, -1.8630, 0.8740, 0.8740, 0.2030, 0.1400, 0.4480
2015/11/09, 00:24:52.339, 61.7100, 61.715, 0.5900, B, 1.7600, M, 0.2950, 0.4870, 0.4870, -0.5490, 0.0480, -0.0910
2015/11/09, 00:25:02.339, 63.7040, 63.704, 0.5600, B, 1.8500, M, 1.5380, -0.1340, -0.1340, 0.3140, -0.2030, 0.5150
2015/11/09, 00:25:12.339, 67.9340, 67.935, 0.0600, T, 0.0300, M, -0.6650, -0.8090, -0.8090, 0.1920, 0.2290, -0.2450
2015/11/09, 00:25:22.339, 67.9890, 67.994, 2.3100, T, 1.3400, M, 0.1050, -1.3920, -1.3920, -0.4110, 0.0090, -1.1050
2015/11/09, 00:25:32.339, 67.4360, 67.439, 0.1900, B, 2.4000, M, 1.0250, -0.0650, -0.0650, -0.1220, -0.1270, -0.4570
2015/11/09, 00:25:42.339, 67.8840, 67.881, 0.5500, T, 0.7700, M, -0.2970, 0.9160, 0.9160, 0.0370, -0.0490, 0.0580
2015/11/09, 00:25:52.339, 67.4800, 67.477, 4.2100, T, 0.2300, P, -0.8160, 0.8220, 0.8220, -0.0420, -0.5270, 0.7870
2015/11/09, 00:26:02.339, 68.2250, 68.223, 1.9000, T, 0.1200, P, -0.7160, 0.5990, 0.5990, -0.2950, 0.6740, -0.5980
2015/11/09, 00:26:12.339, 68.7840, 68.787, 3.5100, B, 0.7000, M, 0.3790, -0.0600, -0.0600, -0.0800, 0.8050, 0.0340
2015/11/09, 00:26:22.339, 70.0540, 70.058, 4.2300, B, 1.0300, M, 0.2800, -1.4980, -1.4980, 0.0680, 0.4800, -0.5990
2015/11/09, 00:26:32.339, 72.2520, 72.250, 0.4900, B, 0.5200, P, -1.2260, -1.2910, -1.2910, -0.1840, 0.1030, -0.0740
2015/11/09, 00:26:42.339, 71.8220, 71.824, 0.1100, T, 0.0900, P, -0.7960, 0.0590, 0.0590, -0.7740, 0.3700, 0.1050
2015/11/09, 00:26:52.339, 68.9400, 68.947, 0.2300, B, 1.5200, M, -0.0690, 0.7270, 0.7270, -0.3870, -0.0570, -0.0900
2015/11/09, 00:27:02.339, 68.5660, 68.567, 2.5800, B, 1.5900, M, 0.1640, 0.5630, 0.5630, -0.3010, 0.4280, 0.2670
2015/11/09, 00:27:12.339, 69.1120, 69.111, 3.3200, B, 0.0000, M, 0.1320, 0.7110, 0.7110, -0.1350, 0.9470, -0.4620
2015/11/09, 00:27:22.339, 68.3000, 68.305, 4.3800, B, 0.4200, P, -1.0870, -0.0520, -0.0520, -0.3740, 0.6850, 0.0810
2015/11/09, 00:27:32.339, 64.2640, 64.268, 3.7200, B, 1.3000, M, -0.8660, -0.5050, -0.5050, -1.1710, 0.5180, -0.5000
2015/11/09, 00:27:42.340, 61.2110, 61.211, 1.0500, B, 3.0100, M, 1.4960, 0.4570, 0.4570, -0.2880, -0.0810, -0.1180
2015/11/09, 00:27:52.340, 61.7540, 61.752, 0.4700, B, 1.3600, M, 0.7090, 0.0480, 0.0480, 0.8930, 0.3940, 0.5000
2015/11/09, 00:28:02.340, 64.0810, 64.082, 0.1900, B, 1.2100, P, -1.2820, -0.6650, -0.6650, 0.0970, 0.0290, 0.3780
2015/11/09, 00:28:12.340, 63.8040, 63.805, 6.1400, T, 1.1900, M, 0.0630, -0.6650, -0.6650, -0.1460, -0.8110, 0.4270
2015/11/09, 00:28:22.340, 65.0310, 65.027, 5.6700, T, 0.9300, M, 0.7680, 0.6320, 0.6320, 0.0860, -0.0820, 0.2700
2015/11/09, 00:28:32.340, 65.9360, 65.936, 4.9200, T, 1.3800, M, 0.7980, 0.9300, 0.9300, 0.4720, -0.5140, 0.8460
2015/11/09, 00:28:42.340, 64.7130, 64.713, 5.0800, T, 0.8500, P, -0.6890, 0.5770, 0.5770, 0.6220, -0.4320, 0.5580
2015/11/09, 00:28:52.340, 61.9010, 61.898, 6.7200, T, 1.1300, M, -0.0960, -0.0960, -0.0960, -0.0450, -0.5410, -0.7280
2015/11/09, 00:29:02.340, 64.0650, 64.065, 4.8300, T, 1.8600, M, 0.6050, 0.5790, 0.5790, 0.0070, -0.4930, 0.5710
2015/11/09, 00:29:12.340, 67.0330, 67.038, 4.5400, T, 0.5400, M, -1.0730, -1.2970, -1.2970, -0.0940, -0.4650, -0.2800
2015/11/09, 00:29:22.340, 67.8830, 67.887, 0.7100, T, 2.0800, M, 0.1320, -2.2910, -2.2910, -1.0130, 0.3230, -0.8500
2015/11/09, 00:29:32.340, 64.4640, 64.467, 4.0600, T, 3.3100, M, 1.7480, -1.2680, -1.2680, -0.0600, -0.4290, -0.9240
2015/11/09, 00:29:42.340, 62.7930, 62.793, 3.2300, T, 0.6900, M, 0.1670, 0.4780, 0.4780, 0.4110, -0.5400, -0.3410
2015/11/09, 00:29:52.340, 64.2630, 64.271, 2.9200, T, 3.0000, M, 0.2950, -0.7940, -0.7940, -0.1790, -0.8030, -0.3980
2015/11/09, 00:30:02.340, 67.6730, 67.671, 3.4900, T, 2.0300, M, 0.7210, -1.2610, -1.2610, -0.2800, -0.0070, -1.0760
2015/11/09, 00:30:12.340, 68.6290, 68.630, 0.1300, T, 0.2800, M, 0.4000, -0.4210, -0.4210, -0.0790, 0.6530, -0.9210
2015/11/09, 00:30:22.340, 68.2480, 68.248, 0.9600, B, 1.4100, M, 0.2720, -0.2150, -0.2150, -0.2690, 0.4650, -0.4950
2015/11/09, 00:30:32.341, 67.5870, 67.596, 1.7000, T, 3.4400, M, 0.7620, -1.6990, -1.6990, -0.1690, -0.6170, -0.3880
2015/11/09, 00:30:42.341, 68.8420, 68.847, 0.9100, T, 2.3400, M, 0.2920, -1.9320, -1.9320, -0.2960, -0.2260, -0.6430
2015/11/09, 00:30:52.341, 69.3900, 69.389, 0.0100, T, 1.0300, M, -0.1720, -0.4340, -0.4340, -0.1450, 0.6710, -0.6940
2015/11/09, 00:31:02.341, 68.1140, 68.111, 0.2200, B, 0.9600, M, 0.3130, 1.0260, 1.0260, -0.0190, 0.3410, -0.2670
2015/11/09, 00:31:12.341, 67.7080, 67.706, 0.3300, B, 1.4600, P, -0.7960, 0.2670, 0.2670, -0.0500, 0.5910, -0.8530
2015/11/09, 00:31:22.341, 65.7950, 65.797, 3.1300, B, 0.2200, M, -1.0810, -0.2900, -0.2900, -0.4330, 0.8600, 0.2240
2015/11/09, 00:31:32.341, 62.5830, 62.585, 3.0800, B, 3.8100, M, 1.8860, 0.0310, 0.0310, -0.4290, -0.1360, 0.5910
2015/11/09, 00:31:42.341, 64.1270, 64.125, 1.1700, T, 0.1900, M, 0.3350, 0.1500, 0.1500, 0.7220, -0.0560, -0.2430
2015/11/09, 00:31:52.341, 68.0000, 68.000, 3.6000, T, 1.3400, P, -2.1090, -0.0980, -0.0980, 0.1020, -0.0280, 0.3320
2015/11/09, 00:32:02.341, 69.7010, 69.701, 0.1100, B, 0.3300, M, 0.0010, -0.1570, -0.1570, -0.5150, 0.6830, -0.5090
2015/11/09, 00:32:12.341, 67.5980, 67.597, 1.2000, B, 1.0400, P, -0.4080, 0.5270, 0.5270, 0.3260, 0.4590, 0.3350
2015/11/09, 00:32:22.341, 67.4150, 67.412, 0.9400, B, 0.5000, P, -1.2520, 1.0060, 1.0060, -0.3600, 0.1510, 0.2820
2015/11/09, 00:32:32.341, 67.5970, 67.602, 0.8300, T, 2.7600, M, 0.8860, -0.2170, -0.2170, -0.6440, -0.0170, -0.6690
2015/11/09, 00:32:42.341, 67.3910, 67.395, 0.6400, B, 0.3700, M, 0.1630, -0.3730, -0.3730, 0.2880, 0.1770, 0.2810
2015/11/09, 00:32:52.341, 67.2220, 67.219, 0.6600, B, 0.0000, M, -0.8480, -0.5850, -0.5850, 0.1100, 0.2320, 0.0230
2015/11/09, 00:33:02.341, 66.2130, 66.213, 2.2900, B, 2.9800, M, 0.5970, 0.1230, 0.1230, -0.6140, 0.4940, -0.3440
2015/11/09, 00:33:12.341, 64.1730, 64.176, 1.2800, T, 1.5100, M, 0.8020, -0.2050, -0.2050, -0.0600, -0.0440, -1.0900
2015/11/09, 00:33:22.342, 65.1050, 65.108, 1.1300, B, 1.1400, M, -0.0020, -0.6870, -0.6870, -0.0780, 0.2790, -0.5710
2015/11/09, 00:33:32.342, 64.6500, 64.650, 1.8900, B, 1.5800, M, 0.5050, -0.3840, -0.3840, -0.3080, 0.0330, 0.2010
2015/11/09, 00:33:42.342, 63.9530, 63.956, 1.2600, B, 1.3100, M, 0.3420, 0.0740, 0.0740, 0.0380, 0.0920, 0.4440
2015/11/09, 00:33:52.342, 66.0420, 66.041, 1.8800, T, 0.1700, P, -0.8170, -0.3190, -0.3190, -0.2310, -0.1080, -0.3860
2015/11/09, 00:34:02.342, 66.5450, 66.545, 2.9900, T, 1.3400, M, 0.5000, -0.1590, -0.1590, -0.0420, -0.1040, -0.0280
2015/11/09, 00:34:12.342, 67.4110, 67.404, 4.4600, T, 2.2400, P, -1.0850, 0.3480, 0.3480, 0.2950, -0.3250, 0.4570